Location: Riverton
(43.0250°N, 108.3790°W)
Time: 12:07:46
(UTC-06:00)

JAS-2 - Visible Passes

Search period start: 29 June 2016 00:00
Search period end: 09 July 2016 00:00
Orbit: 800 x 1322 km, 98.6° (Epoch: 28 June)

Date Brightness Start Highest point End Pass type
(mag) Time Alt. Az. Time Alt. Az. Time Alt. Az.
29 Jun 9.4 01:44:31 10° NNE 01:50:05 56° E 01:51:15 46° SE visible
29 Jun 11.0 03:30:36 10° NNW 03:34:40 21° WNW 03:37:44 13° W visible
30 Jun 10.9 00:50:40 10° NE 00:54:30 19° E 00:55:26 18° ESE visible
30 Jun 9.5 02:34:37 10° N 02:40:08 54° WNW 02:41:54 37° SW visible
01 Jul 9.5 01:39:36 10° NNE 01:45:02 51° E 01:46:04 45° SE visible
01 Jul 10.9 03:25:33 10° NNW 03:29:42 22° WNW 03:32:33 14° W visible
02 Jul 11.0 00:45:56 10° NE 00:49:24 17° E 00:50:14 16° E visible
02 Jul 9.4 02:29:39 10° N 02:35:06 59° WNW 02:36:43 41° SW visible
03 Jul 9.6 01:34:41 10° NNE 01:39:58 47° E 01:40:53 43° SE visible
03 Jul 10.8 03:20:31 10° NNW 03:24:44 23° WNW 03:27:21 16° W visible
04 Jul 11.0 00:41:13 10° NE 00:44:20 15° E 00:45:03 15° E visible
04 Jul 9.3 02:24:39 10° N 02:30:04 63° WNW 02:31:31 45° SW visible
05 Jul 9.7 01:29:45 10° NNE 01:34:54 43° E 01:35:41 40° ESE visible
05 Jul 10.7 03:15:26 10° N 03:19:44 24° WNW 03:22:09 18° W visible
06 Jul 11.1 00:36:33 10° ENE 00:39:14 14° E 00:39:51 14° E visible
06 Jul 9.2 02:19:39 10° N 02:25:02 69° WNW 02:26:19 49° SW visible
07 Jul 9.8 01:24:49 10° NNE 01:29:49 39° E 01:30:29 38° ESE visible
07 Jul 10.6 03:10:23 10° N 03:14:45 26° WNW 03:16:58 19° W visible
08 Jul 11.2 00:31:56 10° ENE 00:34:08 12° E 00:34:39 12° E visible
08 Jul 9.1 02:14:39 10° N 02:19:59 75° WNW 02:21:07 54° SW visible
